Location: Bratislava
(0.0000°N, 17.1167°E)
Time: 04:50:42
(UTC+01:00)

Delta 168 - Pass Details

Date: 24 January 2021
Orbit: 394 x 2047 km, 25.3° (Epoch: 06 March)

Event Time Altitude Azimuth Distance (km) Brightness Sun altitude
Rises 19:44:55 0° 288° (WNW) 2,267 6.7 -23.8°
Reaches altitude 10° 19:46:53 10° 283° (WNW) 1,437 5.7 -24.3°
Enters shadow 19:49:04 38° 254° (WSW) 665 3.7 -24.8°
